EW0609 Weather Reports


time (UTC)temp
C
wind
direction
speed
KPH
gust
KPH
rain 1hr
cm
rain 24hr
cm
rain mn
cm
humidity
%
barometer
mb
20260509091838 13 124 6.4 16.1 0.00 0.00 0.00 51 1013.3
20260509091339 13 104 9.7 16.1 0.00 0.00 0.00 51 1013.2
20260509090837 13 111 9.7 16.1 0.00 0.00 0.00 51 1013.2
20260509090337 13 134 8.0 11.3 0.00 0.00 0.00 51 1013.2
20260509085838 13 134 6.4 11.3 0.00 0.00 0.00 51 1013.3
20260509085337 13 117 6.4 11.3 0.00 0.00 0.00 51 1013.3
20260509085228 13 133 6.4 16.1 0.00 0.00 0.00 50 1013.4
20260509084337 14 117 8.0 16.1 0.00 0.00 0.00 50 1013.5
20260509083837 14 96 6.4 17.7 0.00 0.00 0.00 50 1013.4
20260509083337 14 103 9.7 17.7 0.00 0.00 0.00 50 1013.4
20260509082837 14 134 9.7 16.1 0.00 0.00 0.00 50 1013.3
20260509082721 14 114 9.7 16.1 0.00 0.00 0.00 50 1013.3
20260509082222 14 104 9.7 16.1 0.00 0.00 0.00 50 1013.3
20260509081337 14 103 8.0 19.3 0.00 0.00 0.00 50 1013.3
20260509081219 14 120 9.7 19.3 0.00 0.00 0.00 50 1013.3
20260509080337 14 114 8.0 19.3 0.00 0.00 0.00 49 1013.3
20260509075837 14 111 6.4 19.3 0.00 0.00 0.00 49 1013.3
20260509075337 15 120 6.4 19.3 0.00 0.00 0.00 49 1013.4
20260509075229 15 117 12.9 19.3 0.00 0.00 0.00 48 1013.3
20260509074337 15 133 9.7 20.9 0.00 0.00 0.00 47 1013.5
20260509073837 15 111 9.7 20.9 0.00 0.00 0.00 46 1013.4
20260509073337 16 121 12.9 24.1 0.00 0.00 0.00 44 1013.4
20260509072838 17 124 9.7 24.1 0.00 0.00 0.00 43 1013.3
20260509072337 17 100 9.7 22.5 0.00 0.00 0.00 43 1013.2
20260509071838 17 79 9.7 22.5 0.00 0.00 0.00 43 1013.2
20260509071724 17 125 9.7 19.3 0.00 0.00 0.00 43 1013.0
20260509070837 17 56 8.0 20.9 0.00 0.00 0.00 43 1013.2
20260509070337 17 85 8.0 20.9 0.00 0.00 0.00 43 1012.9
20260509070222 16 104 6.4 16.1 0.00 0.00 0.00 43 1013.0
20260509065336 16 79 6.4 14.5 0.00 0.00 0.00 43 1013.0
20260509064839 16 76 6.4 14.5 0.00 0.00 0.00 43 1013.2
20260509064716 17 90 4.8 14.5 0.00 0.00 0.00 42 1013.0
20260509063839 17 65 6.4 14.5 0.00 0.00 0.00 42 1012.8
20260509063337 17 87 3.2 14.5 0.00 0.00 0.00 41 1012.8
20260509062837 17 102 4.8 19.3 0.00 0.00 0.00 41 1012.9
20260509062337 18 87 3.2 22.5 0.00 0.00 0.00 41 1012.8
20260509062225 18 114 8.0 22.5 0.00 0.00 0.00 41 1013.2
20260509061336 18 92 9.7 20.9 0.00 0.00 0.00 41 1013.0
20260509060836 17 86 4.8 11.3 0.00 0.00 0.00 41 1013.2
20260509060338 18 54 4.8 14.5 0.00 0.00 0.00 41 1013.0
20260509055838 18 94 6.4 14.5 0.00 0.00 0.00 40 1013.3
20260509055337 18 90 6.4 16.1 0.00 0.00 0.00 40 1013.2
20260509054837 18 106 8.0 16.1 0.00 0.00 0.00 39 1013.0
20260509054337 18 110 8.0 14.5 0.00 0.00 0.00 39 1013.2
20260509053837 18 109 6.4 14.5 0.00 0.00 0.00 39 1013.2
20260509053337 18 103 6.4 14.5 0.00 0.00 0.00 39 1013.0
20260509052837 18 99 9.7 14.5 0.00 0.00 0.00 39 1013.2
20260509052337 18 109 4.8 19.3 0.00 0.00 0.00 39 1013.2
20260509051841 18 93 4.8 19.3 0.00 0.00 0.00 38 1012.9
20260509051337 18 103 8.0 11.3 0.00 0.00 0.00 38 1013.4
20260509050838 18 128 6.4 11.3 0.00 0.00 0.00 39 1013.2
20260509050337 18 113 3.2 14.5 0.00 0.00 0.00 38 1013.0
20260509045838 19 109 8.0 14.5 0.00 0.00 0.00 38 1013.3
20260509045731 19 117 8.0 14.5 0.00 0.00 0.00 37 1013.2
20260509044837 19 106 6.4 11.3 0.00 0.00 0.00 37 1013.2
20260509044336 19 97 6.4 8.0 0.00 0.00 0.00 37 1013.3
20260509043836 20 134 3.2 8.0 0.00 0.00 0.00 37 1013.2
20260509043336 19 103 0.0 9.7 0.00 0.00 0.00 37 1013.3
20260509042838 19 106 4.8 9.7 0.00 0.00 0.00 37 1013.3
20260509042729 19 100 3.2 9.7 0.00 0.00 0.00 37 1013.2
20260509041837 20 107 4.8 9.7 0.00 0.00 0.00 37 1013.2
20260509041336 20 109 4.8 11.3 0.00 0.00 0.00 37 1013.2
20260509040836 20 110 6.4 11.3 0.00 0.00 0.00 36 1013.2
20260509040716 20 103 6.4 9.7 0.00 0.00 0.00 36 1013.2
20260509035836 20 107 4.8 8.0 0.00 0.00 0.00 37 1013.2
20260509035337 20 89 1.6 6.4 0.00 0.00 0.00 36 1013.0
20260509034837 20 93 3.2 4.8 0.00 0.00 0.00 36 1013.0
20260509034336 20 107 0.0 11.3 0.00 0.00 0.00 35 1012.9
20260509033836 20 87 3.2 11.3 0.00 0.00 0.00 35 1012.9
20260509033724 21 103 3.2 9.7 0.00 0.00 0.00 35 1012.9
20260509032837 21 97 4.8 9.7 0.00 0.00 0.00 34 1012.9
20260509032336 21 113 3.2 6.4 0.00 0.00 0.00 34 1012.8
20260509031836 21 110 1.6 6.4 0.00 0.00 0.00 34 1012.7
20260509031336 21 96 1.6 6.4 0.00 0.00 0.00 34 1012.6
20260509030836 21 68 0.0 8.0 0.00 0.00 0.00 34 1012.5
20260509030341 21 114 3.2 8.0 0.00 0.00 0.00 34 1012.6
20260509025836 21 103 1.6 4.8 0.00 0.00 0.00 33 1012.5
20260509025336 21 106 0.0 4.8 0.00 0.00 0.00 32 1012.4
20260509024836 21 100 1.6 4.8 0.00 0.00 0.00 32 1012.3
20260509024336 21 51 0.0 4.8 0.00 0.00 0.00 32 1012.4
20260509023837 21 111 0.0 4.8 0.00 0.00 0.00 31 1012.2
20260509023337 22 116 0.0 4.8 0.00 0.00 0.00 31 1012.0
20260509022837 22 97 1.6 4.8 0.00 0.00 0.00 31 1012.0
20260509022335 22 99 1.6 3.2 0.00 0.00 0.00 31 1011.9
20260509021835 22 23 0.0 6.4 0.00 0.00 0.00 31 1012.0
20260509021728 22 69 1.6 6.4 0.00 0.00 0.00 30 1011.8
20260509020836 22 90 0.0 3.2 0.00 0.00 0.00 30 1011.8
20260509020721 23 107 1.6 4.8 0.00 0.00 0.00 30 1011.6
20260509020230 23 21 1.6 4.8 0.00 0.00 0.00 30 1011.8
20260509015340 23 20 0.0 3.2 0.00 0.00 0.00 29 1011.7
20260509014836 23 0 0.0 4.8 0.00 0.00 0.00 29 1011.7
20260509014337 23 44 0.0 9.7 0.00 0.00 0.00 29 1011.7
20260509014220 23 27 3.2 9.7 0.00 0.00 0.00 29 1011.5
20260509013336 23 35 3.2 9.7 0.00 0.00 0.00 29 1011.5
20260509013226 24 31 4.8 17.7 0.00 0.00 0.00 29 1011.5
20260509012338 24 0 4.8 17.7 0.00 0.00 0.00 29 1011.4
20260509011838 24 16 4.8 14.5 0.00 0.00 0.00 28 1011.4
20260509011336 24 23 3.2 9.7 0.00 0.00 0.00 28 1011.4
20260509010836 24 44 3.2 16.1 0.00 0.00 0.00 28 1011.3
20260509010724 24 1 4.8 16.1 0.00 0.00 0.00 28 1011.4
20260509005836 25 41 9.7 16.1 0.00 0.00 0.00 28 1011.3
20260509005338 25 25 3.2 9.7 0.00 0.00 0.00 28 1011.1
20260509004836 25 0 3.2 16.1 0.00 0.00 0.00 27 1011.1
20260509004734 25 21 8.0 16.1 0.00 0.00 0.00 27 1011.0
20260509003839 25 73 6.4 16.1 0.00 0.00 0.00 27 1011.1
20260509003336 25 0 6.4 14.5 0.00 0.00 0.00 27 1011.0
20260509002836 25 0 4.8 17.7 0.00 0.00 0.00 26 1011.0
20260509002336 26 35 8.0 17.7 0.00 0.00 0.00 26 1011.0
20260509001837 26 10 4.8 17.7 0.00 0.00 0.00 25 1011.0
20260509001336 26 8 9.7 20.9 0.00 0.00 0.00 25 1011.0
20260509000835 26 0 9.7 20.9 0.00 0.00 0.00 25 1011.0
20260509000336 26 11 6.4 16.1 0.00 0.00 0.00 26 1010.9
20260509000220 26 62 6.4 16.1 0.00 0.00 0.00 25 1010.9
20260508235337 26 69 6.4 17.7 0.00 0.00 0.00 28 1010.9
20260508234837 26 25 6.4 19.3 0.00 0.00 0.00 25 1010.9
20260508234336 26 333 9.7 24.1 0.00 0.00 0.00 25 1010.8
20260508233836 27 18 6.4 24.1 0.00 0.00 0.00 25 1010.9
20260508233337 27 0 9.7 24.1 0.00 0.00 0.00 24 1010.9
20260508232836 27 350 11.3 25.7 0.00 0.00 0.00 25 1010.8
20260508232337 27 14 9.7 25.7 0.00 0.00 0.00 25 1010.8
20260508231836 27 0 9.7 22.5 0.00 0.00 0.00 25 1010.9
20260508231637 27 13 6.4 22.5 0.00 0.00 0.00 24 1010.8
20260508231505 27 0 11.3 22.5 0.00 0.00 0.00 25 1010.9
20260508230336 27 61 4.8 22.5 0.00 0.00 0.00 25 1010.9
20260508225837 27 17 6.4 20.9 0.00 0.00 0.00 24 1010.8
20260508225337 27 39 4.8 24.1 0.00 0.00 0.00 24 1010.8
20260508224838 28 90 9.7 27.4 0.00 0.00 0.00 24 1010.9
20260508224339 28 37 11.3 27.4 0.00 0.00 0.00 24 1010.8
20260508224226 28 14 6.4 25.7 0.00 0.00 0.00 24 1010.8
20260508223336 28 4 4.8 27.4 0.00 0.00 0.00 25 1010.8
20260508222837 28 30 14.5 27.4 0.00 0.00 0.00 25 1010.8
20260508222337 28 0 9.7 17.7 0.00 0.00 0.00 24 1010.8
20260508221836 28 351 9.7 24.1 0.00 0.00 0.00 24 1010.8
20260508221337 28 30 6.4 27.4 0.00 0.00 0.00 25 1010.7
20260508221118 28 0 17.7 30.6 0.00 0.00 0.00 24 1010.8
20260508221005 28 7 9.7 30.6 0.00 0.00 0.00 24 1010.8
20260508215835 28 16 9.7 25.7 0.00 0.00 0.00 24 1010.8
20260508215720 28 65 9.7 25.7 0.00 0.00 0.00 24 1010.7
20260508215232 28 0 11.3 24.1 0.00 0.00 0.00 25 1010.8
20260508214337 28 340 8.0 20.9 0.00 0.00 0.00 25 1010.8
20260508213838 28 116 9.7 22.5 0.00 0.00 0.00 24 1010.9
20260508213336 28 34 11.3 22.5 0.00 0.00 0.00 23 1011.0
20260508212838 28 32 4.8 22.5 0.00 0.00 0.00 23 1010.9
20260508212336 28 25 6.4 19.3 0.00 0.00 0.00 24 1010.9
20260508211836 28 52 4.8 24.1 0.00 0.00 0.00 23 1010.9
20260508211336 28 25 6.4 24.1 0.00 0.00 0.00 24 1011.0
20260508210836 29 51 8.0 29.0 0.00 0.00 0.00 24 1010.9
20260508210335 29 42 11.3 29.0 0.00 0.00 0.00 24 1010.9
20260508205836 29 0 12.9 30.6 0.00 0.00 0.00 22 1011.0
20260508205337 28 0 16.1 30.6 0.00 0.00 0.00 24 1011.1
20260508204837 28 54 6.4 29.0 0.00 0.00 0.00 23 1011.0
20260508204727 28 18 9.7 24.1 0.00 0.00 0.00 24 1011.1
20260508203837 29 49 9.7 24.1 0.00 0.00 0.00 23 1011.1
20260508203723 28 357 8.0 25.7 0.00 0.00 0.00 22 1011.0
20260508202835 29 331 8.0 27.4 0.00 0.00 0.00 23 1011.1
20260508202336 29 14 12.9 29.0 0.00 0.00 0.00 21 1011.3
20260508202228 28 0 9.7 29.0 0.00 0.00 0.00 22 1011.3
20260508201337 29 320 14.5 27.4 0.00 0.00 0.00 21 1011.3
20260508200835 29 0 11.3 27.4 0.00 0.00 0.00 21 1011.3
20260508200338 29 0 6.4 30.6 0.00 0.00 0.00 21 1011.3
20260508195836 29 18 9.7 33.8 0.00 0.00 0.00 24 1011.3
20260508195336 29 0 16.1 33.8 0.00 0.00 0.00 24 1011.3
20260508195223 29 0 6.4 22.5 0.00 0.00 0.00 24 1011.3
20260508194337 29 32 4.8 27.4 0.00 0.00 0.00 23 1011.3
20260508193836 29 14 11.3 27.4 0.00 0.00 0.00 23 1011.3
20260508193335 29 3 9.7 22.5 0.00 0.00 0.00 24 1011.1
20260508192837 28 41 6.4 25.7 0.00 0.00 0.00 23 1011.1
20260508192336 29 0 6.4 25.7 0.00 0.00 0.00 24 1011.3
20260508191837 29 343 9.7 30.6 0.00 0.00 0.00 25 1011.3
20260508191337 29 354 9.7 30.6 0.00 0.00 0.00 25 1011.3
20260508190835 28 327 4.8 17.7 0.00 0.00 0.00 27 1011.1
20260508190337 28 348 6.4 24.1 0.00 0.00 0.00 30 1011.3
20260508190225 28 336 11.3 24.1 0.00 0.00 0.00 30 1011.3
20260508185337 28 336 6.4 19.3 0.00 0.00 0.00 30 1011.4
20260508185218 28 357 8.0 19.3 0.00 0.00 0.00 28 1011.4
20260508184424 28 324 4.8 19.3 0.00 0.00 0.00 29 1011.5
20260508184002 28 14 9.7 17.7 0.00 0.00 0.00 28 1011.6
20260508182837 28 37 9.7 19.3 0.00 0.00 0.00 29 1011.6
20260508182337 27 52 4.8 19.3 0.00 0.00 0.00 29 1011.6
20260508182122 27 7 9.7 20.9 0.00 0.00 0.00 29 1011.6
20260508182009 27 337 6.4 20.9 0.00 0.00 0.00 28 1011.6
20260508180837 27 348 8.0 16.1 0.00 0.00 0.00 30 1011.6
20260508180337 27 0 6.4 16.1 0.00 0.00 0.00 33 1011.7
20260508175837 27 347 6.4 16.1 0.00 0.00 0.00 30 1011.7
20260508175337 26 312 6.4 14.5 0.00 0.00 0.00 31 1011.8
20260508174835 25 259 4.8 17.7 0.00 0.00 0.00 30 1011.7
20260508174335 26 307 9.7 17.7 0.00 0.00 0.00 31 1011.8
20260508173835 26 302 4.8 19.3 0.00 0.00 0.00 32 1011.8
20260508173336 26 286 9.7 19.3 0.00 0.00 0.00 28 1011.9
20260508172838 26 247 9.7 17.7 0.00 0.00 0.00 31 1011.8
20260508172338 26 340 8.0 17.7 0.00 0.00 0.00 31 1011.8
20260508171836 25 268 1.6 6.4 0.00 0.00 0.00 33 1011.9
20260508171720 25 4 1.6 16.1 0.00 0.00 0.00 30 1011.9
20260508171118 25 261 3.2 11.3 0.00 0.00 0.00 30 1012.0
20260508171003 25 306 6.4 16.1 0.00 0.00 0.00 32 1012.0
20260508165838 26 353 4.8 19.3 0.00 0.00 0.00 32 1012.0
20260508165336 25 10 11.3 19.3 0.00 0.00 0.00 34 1012.2
20260508164835 24 1 4.8 14.5 0.00 0.00 0.00 35 1012.3
20260508164335 24 345 3.2 14.5 0.00 0.00 0.00 34 1012.4
20260508163837 24 337 4.8 14.5 0.00 0.00 0.00 34 1012.4
20260508163335 24 254 3.2 11.3 0.00 0.00 0.00 32 1012.3
20260508162836 24 234 4.8 11.3 0.00 0.00 0.00 38 1012.3
20260508162335 23 188 4.8 11.3 0.00 0.00 0.00 37 1012.4
20260508161837 23 243 3.2 9.7 0.00 0.00 0.00 38 1012.3
20260508161336 23 323 3.2 9.7 0.00 0.00 0.00 38 1012.4
20260508160835 22 274 3.2 14.5 0.00 0.00 0.00 39 1012.4
20260508160336 22 233 3.2 14.5 0.00 0.00 0.00 41 1012.5
20260508155836 23 245 4.8 16.1 0.00 0.00 0.00 40 1012.4
20260508155336 22 272 4.8 17.7 0.00 0.00 0.00 41 1012.4
20260508154836 22 206 6.4 17.7 0.00 0.00 0.00 43 1012.5
20260508154336 21 257 8.0 19.3 0.00 0.00 0.00 44 1012.5
20260508153835 21 265 8.0 19.3 0.00 0.00 0.00 45 1012.6
20260508153334 21 199 6.4 14.5 0.00 0.00 0.00 48 1012.6
20260508152835 21 243 6.4 19.3 0.00 0.00 0.00 49 1012.6
20260508152355 20 207 9.7 17.7 0.00 0.00 0.00 51 1012.8
20260508152344 21 176 6.4 19.3 0.00 0.00 0.00 50 1012.8
20260508151504 20 271 8.0 20.9 0.00 0.00 0.00 54 1012.7
20260508150337 19 255 9.7 19.3 0.00 0.00 0.00 53 1012.8
20260508145835 20 240 9.7 19.3 0.00 0.00 0.00 55 1012.7
20260508145723 19 221 9.7 24.1 0.00 0.00 0.00 56 1012.8
20260508144836 18 238 9.7 24.1 0.00 0.00 0.00 57 1012.9
20260508144335 18 193 9.7 25.7 0.00 0.00 0.00 58 1012.8
20260508143836 18 204 8.0 25.7 0.00 0.00 0.00 60 1012.7
20260508143334 17 247 9.7 19.3 0.00 0.00 0.00 61 1012.8
20260508142834 17 224 9.7 16.1 0.00 0.00 0.00 61 1012.8
20260508142335 16 175 4.8 19.3 0.00 0.00 0.00 63 1012.8
20260508141837 16 223 6.4 19.3 0.00 0.00 0.00 64 1012.9
20260508141338 16 243 9.7 20.9 0.00 0.00 0.00 64 1012.9
20260508140837 16 245 9.7 20.9 0.00 0.00 0.00 64 1012.9
20260508140335 16 230 9.7 19.3 0.00 0.00 0.00 64 1012.7
20260508135836 16 226 8.0 20.9 0.00 0.00 0.00 66 1012.6
20260508135720 15 227 8.0 20.9 0.00 0.00 0.00 67 1012.7
20260508134835 15 206 8.0 22.5 0.00 0.00 0.00 66 1012.8
20260508134335 15 217 9.7 22.5 0.00 0.00 0.00 66 1012.9
20260508133836 15 241 8.0 19.3 0.00 0.00 0.00 67 1013.2
20260508133336 15 223 8.0 16.1 0.00 0.00 0.00 67 1013.3
20260508132836 15 200 8.0 19.3 0.00 0.00 0.00 67 1013.2
20260508132337 15 224 9.7 19.3 0.00 0.00 0.00 66 1012.9
20260508131835 15 217 9.7 19.3 0.00 0.00 0.00 66 1012.8
20260508131516 13 241 8.0 19.3 0.00 0.00 0.00 70 1012.6
20260508131510 14 227 9.7 19.3 0.00 0.00 0.00 69 1012.7
20260508131426 15 195 8.0 19.3 0.00 0.00 0.00 67 1012.6
20260508125835 13 240 8.0 22.5 0.00 0.00 0.00 70 1012.5
20260508125336 13 210 9.7 25.7 0.00 0.00 0.00 70 1012.5
20260508124835 13 209 8.0 25.7 0.00 0.00 0.00 70 1012.5
20260508124336 13 178 11.3 19.3 0.00 0.00 0.00 70 1012.5
20260508123836 13 288 8.0 17.7 0.00 0.00 0.00 70 1012.7
20260508123335 13 274 6.4 14.5 0.00 0.00 0.00 70 1012.6
20260508122835 13 224 6.4 17.7 0.00 0.00 0.00 70 1012.5
20260508122335 13 202 8.0 19.3 0.00 0.00 0.00 70 1012.4
20260508121835 13 209 8.0 19.3 0.00 0.00 0.00 70 1012.2
20260508121335 13 237 9.7 20.9 0.00 0.00 0.00 70 1012.2
20260508120836 13 210 6.4 22.5 0.00 0.00 0.00 69 1012.0
20260508120334 13 210 6.4 22.5 0.00 0.00 0.00 69 1012.0
20260508120108 13 230 9.7 20.9 0.00 0.00 0.00 69 1012.0
20260508115336 13 216 11.3 20.9 0.00 0.00 0.00 69 1012.2
20260508114835 13 244 9.7 22.5 0.00 0.00 0.00 69 1012.0
20260508114335 13 217 8.0 22.5 0.00 0.00 0.00 69 1012.0
20260508113836 13 209 11.3 24.1 0.00 0.00 0.00 69 1012.0
20260508113335 13 203 12.9 24.1 0.00 0.00 0.00 69 1012.0
20260508112835 13 238 9.7 25.7 0.00 0.00 0.00 69 1012.2
20260508112337 13 228 11.3 25.7 0.00 0.00 0.00 69 1012.2
20260508112223 13 217 9.7 22.5 0.00 0.00 0.00 69 1012.2
20260508111336 13 226 9.7 22.5 0.00 0.00 0.00 69 1012.0
20260508111224 13 221 9.7 22.5 0.00 0.00 0.00 68 1012.0
20260508110338 13 206 9.7 19.3 0.00 0.00 0.00 68 1012.0
20260508105835 13 248 8.0 19.3 0.00 0.00 0.00 68 1012.2
20260508105334 13 238 8.0 20.9 0.00 0.00 0.00 68 1012.0
20260508104836 13 221 9.7 30.6 0.00 0.00 0.00 68 1012.2
20260508104335 13 212 9.7 30.6 0.00 0.00 0.00 67 1012.2
20260508103835 13 220 9.7 25.7 0.00 0.00 0.00 67 1012.3
20260508103337 13 210 12.9 22.5 0.00 0.00 0.00 68 1012.3
20260508103217 13 254 12.9 22.5 0.00 0.00 0.00 67 1012.3
20260508102335 13 214 9.7 24.1 0.00 0.00 0.00 67 1012.5
20260508101837 13 197 9.7 24.1 0.00 0.00 0.00 67 1012.3
20260508101334 13 213 9.7 19.3 0.00 0.00 0.00 66 1012.4
20260508100836 13 219 8.0 25.7 0.00 0.00 0.00 66 1012.4
20260508100335 13 220 9.7 25.7 0.00 0.00 0.00 66 1012.4
20260508100228 13 238 9.7 24.1 0.00 0.00 0.00 66 1012.3
20260508095336 13 168 12.9 24.1 0.00 0.00 0.00 66 1012.5
20260508094835 13 219 11.3 24.1 0.00 0.00 0.00 65 1012.4
20260508094722 13 227 11.3 24.1 0.00 0.00 0.00 62 1012.4
20260508093835 13 268 9.7 20.9 0.00 0.00 0.00 62 1012.4
20260508093336 13 238 8.0 20.9 0.00 0.00 0.00 62 1012.5
20260508093229 13 204 9.7 20.9 0.00 0.00 0.00 62 1012.6
20260508092336 13 234 9.7 25.7 0.00 0.00 0.00 62 1012.5